| time (UTC) | temp C | wind direction | speed KPH | gust KPH | rain 1hr cm | rain 24hr cm | rain mn cm | humidity % | barometer mb |
| 20260504050415 | 5 | 275 | 0.0 | 0.0 | 0.00 | 0.00 | 0.00 | 60 | 1014.5 |
| 20260504045913 | 5 | 271 | 1.6 | 1.6 | 0.00 | 0.00 | 0.00 | 60 | 1014.4 |
| 20260504045408 | 6 | 213 | 0.0 | 0.0 | 0.00 | 0.00 | 0.00 | 60 | 1014.5 |
| 20260504044905 | 6 | 266 | 0.0 | 0.0 | 0.00 | 0.00 | 0.00 | 59 | 1014.5 |
| 20260504044402 | 6 | 228 | 1.6 | 3.2 | 0.00 | 0.00 | 0.00 | 59 | 1014.4 |
| 20260504043900 | 6 | 225 | 1.6 | 1.6 | 0.00 | 0.00 | 0.00 | 58 | 1014.7 |
| 20260504043356 | 6 | 291 | 0.0 | 1.6 | 0.00 | 0.00 | 0.00 | 59 | 1014.5 |
| 20260504042854 | 5 | 208 | 1.6 | 3.2 | 0.00 | 0.00 | 0.00 | 59 | 1014.5 |
| 20260504042350 | 6 | 224 | 0.0 | 1.6 | 0.00 | 0.00 | 0.00 | 59 | 1014.5 |
| 20260504041846 | 6 | 277 | 1.6 | 3.2 | 0.00 | 0.00 | 0.00 | 59 | 1014.4 |
| 20260504041343 | 6 | 229 | 1.6 | 3.2 | 0.00 | 0.00 | 0.00 | 59 | 1014.2 |
| 20260504040839 | 5 | 275 | 3.2 | 3.2 | 0.00 | 0.00 | 0.00 | 60 | 1014.4 |
| 20260504040337 | 5 | 294 | 1.6 | 1.6 | 0.00 | 0.00 | 0.00 | 60 | 1014.5 |
| 20260504035832 | 5 | 301 | 0.0 | 0.0 | 0.00 | 0.00 | 0.00 | 62 | 1014.6 |
| 20260504035330 | 5 | 301 | 0.0 | 0.0 | 0.00 | 0.00 | 0.00 | 61 | 1014.5 |
| 20260504034827 | 5 | 343 | 0.0 | 0.0 | 0.00 | 0.00 | 0.00 | 63 | 1014.4 |
| 20260504034325 | 5 | 343 | 0.0 | 0.0 | 0.00 | 0.00 | 0.00 | 63 | 1014.6 |
| 20260504033821 | 5 | 343 | 0.0 | 0.0 | 0.00 | 0.00 | 0.00 | 63 | 1014.4 |
| 20260504033320 | 5 | 343 | 0.0 | 0.0 | 0.00 | 0.00 | 0.00 | 63 | 1014.5 |
| 20260504032815 | 5 | 342 | 0.0 | 1.6 | 0.00 | 0.00 | 0.00 | 62 | 1014.6 |
| 20260504032313 | 4 | 19 | 0.0 | 0.0 | 0.00 | 0.00 | 0.00 | 63 | 1014.9 |
| 20260504031810 | 4 | 19 | 0.0 | 0.0 | 0.00 | 0.00 | 0.00 | 65 | 1014.7 |
| 20260504031307 | 4 | 19 | 0.0 | 0.0 | 0.00 | 0.00 | 0.00 | 64 | 1015.0 |
| 20260504030803 | 4 | 23 | 0.0 | 0.0 | 0.00 | 0.00 | 0.00 | 64 | 1014.9 |
| 20260504030300 | 4 | 23 | 0.0 | 0.0 | 0.00 | 0.00 | 0.00 | 62 | 1014.9 |
| 20260504025756 | 5 | 23 | 0.0 | 0.0 | 0.00 | 0.00 | 0.00 | 61 | 1014.7 |
| 20260504025254 | 5 | 23 | 0.0 | 0.0 | 0.00 | 0.00 | 0.00 | 62 | 1014.7 |
| 20260504024750 | 5 | 23 | 0.0 | 0.0 | 0.00 | 0.00 | 0.00 | 61 | 1014.7 |
| 20260504024247 | 5 | 23 | 0.0 | 0.0 | 0.00 | 0.00 | 0.00 | 61 | 1014.6 |
| 20260504023744 | 5 | 23 | 0.0 | 0.0 | 0.00 | 0.00 | 0.00 | 61 | 1014.6 |
| 20260504023240 | 5 | 23 | 0.0 | 0.0 | 0.00 | 0.00 | 0.00 | 61 | 1014.6 |
| 20260504022736 | 5 | 23 | 0.0 | 0.0 | 0.00 | 0.00 | 0.00 | 60 | 1014.6 |
| 20260504022232 | 5 | 23 | 0.0 | 0.0 | 0.00 | 0.00 | 0.00 | 60 | 1014.6 |
| 20260504021730 | 5 | 23 | 0.0 | 0.0 | 0.00 | 0.00 | 0.00 | 60 | 1014.5 |
| 20260504021227 | 5 | 23 | 0.0 | 0.0 | 0.00 | 0.00 | 0.00 | 59 | 1014.7 |
| 20260504020724 | 5 | 23 | 0.0 | 0.0 | 0.00 | 0.00 | 0.00 | 60 | 1014.9 |
| 20260504020220 | 5 | 24 | 0.0 | 0.0 | 0.00 | 0.00 | 0.00 | 59 | 1014.5 |
| 20260504015716 | 5 | 24 | 0.0 | 0.0 | 0.00 | 0.00 | 0.00 | 58 | 1014.5 |
| 20260504015213 | 5 | 1 | 0.0 | 0.0 | 0.00 | 0.00 | 0.00 | 58 | 1014.5 |
| 20260504014708 | 6 | 1 | 0.0 | 0.0 | 0.00 | 0.00 | 0.00 | 58 | 1014.6 |
| 20260504014205 | 6 | 2 | 0.0 | 0.0 | 0.00 | 0.00 | 0.00 | 58 | 1014.7 |
| 20260504013703 | 6 | 1 | 0.0 | 0.0 | 0.00 | 0.00 | 0.00 | 57 | 1014.6 |
| 20260504013200 | 6 | 1 | 0.0 | 0.0 | 0.00 | 0.00 | 0.00 | 57 | 1014.5 |
| 20260504012657 | 6 | 1 | 0.0 | 0.0 | 0.00 | 0.00 | 0.00 | 57 | 1014.5 |
| 20260504012155 | 6 | 1 | 0.0 | 0.0 | 0.00 | 0.00 | 0.00 | 57 | 1014.3 |
| 20260504011652 | 6 | 1 | 0.0 | 0.0 | 0.00 | 0.00 | 0.00 | 56 | 1014.4 |
| 20260504011148 | 6 | 1 | 0.0 | 0.0 | 0.00 | 0.00 | 0.00 | 56 | 1014.4 |
| 20260504010644 | 6 | 2 | 0.0 | 0.0 | 0.00 | 0.00 | 0.00 | 55 | 1014.5 |
| 20260504010140 | 6 | 2 | 0.0 | 0.0 | 0.00 | 0.00 | 0.00 | 56 | 1014.5 |
| 20260504005637 | 6 | 1 | 0.0 | 0.0 | 0.00 | 0.00 | 0.00 | 58 | 1014.4 |
| 20260504005134 | 6 | 1 | 0.0 | 0.0 | 0.00 | 0.00 | 0.00 | 57 | 1014.5 |
| 20260504004632 | 6 | 1 | 0.0 | 0.0 | 0.00 | 0.00 | 0.00 | 57 | 1014.4 |
| 20260504004129 | 6 | 0 | 0.0 | 0.0 | 0.00 | 0.00 | 0.00 | 56 | 1014.2 |
| 20260504003625 | 6 | 1 | 0.0 | 0.0 | 0.00 | 0.00 | 0.00 | 57 | 1014.3 |
| 20260504003121 | 7 | 1 | 0.0 | 0.0 | 0.00 | 0.00 | 0.00 | 55 | 1014.4 |
| 20260504002618 | 7 | 6 | 0.0 | 0.0 | 0.00 | 0.00 | 0.00 | 56 | 1014.4 |
| 20260504002116 | 7 | 6 | 0.0 | 0.0 | 0.00 | 0.00 | 0.00 | 56 | 1014.2 |
| 20260504001614 | 7 | 5 | 0.0 | 0.0 | 0.00 | 0.00 | 0.00 | 55 | 1014.1 |
| 20260504001109 | 7 | 6 | 0.0 | 0.0 | 0.00 | 0.00 | 0.00 | 54 | 1014.3 |
| 20260504000607 | 7 | 10 | 0.0 | 0.0 | 0.00 | 0.00 | 0.00 | 52 | 1014.3 |
| 20260504000105 | 8 | 272 | 0.0 | 0.0 | 0.00 | 0.00 | 0.00 | 54 | 1014.3 |
| 20260503235603 | 8 | 272 | 0.0 | 0.0 | 0.00 | 0.00 | 0.00 | 53 | 1014.3 |
| 20260503235059 | 8 | 343 | 1.6 | 1.6 | 0.00 | 0.00 | 0.00 | 49 | 1014.4 |
| 20260503234557 | 8 | 345 | 0.0 | 1.6 | 0.00 | 0.00 | 0.00 | 47 | 1014.4 |
| 20260503234055 | 9 | 329 | 1.6 | 1.6 | 0.00 | 0.00 | 0.00 | 46 | 1014.3 |
| 20260503233551 | 9 | 289 | 6.4 | 9.7 | 0.00 | 0.00 | 0.00 | 46 | 1014.5 |
| 20260503233047 | 9 | 318 | 1.6 | 1.6 | 0.00 | 0.00 | 0.00 | 45 | 1014.4 |
| 20260503232544 | 9 | 310 | 3.2 | 3.2 | 0.00 | 0.00 | 0.00 | 46 | 1014.2 |
| 20260503232042 | 10 | 318 | 1.6 | 4.8 | 0.00 | 0.00 | 0.00 | 45 | 1014.5 |
| 20260503231539 | 10 | 311 | 4.8 | 8.0 | 0.00 | 0.00 | 0.00 | 45 | 1014.4 |
| 20260503231036 | 10 | 356 | 1.6 | 3.2 | 0.00 | 0.00 | 0.00 | 45 | 1014.3 |
| 20260503230532 | 10 | 354 | 0.0 | 1.6 | 0.00 | 0.00 | 0.00 | 45 | 1014.3 |
| 20260503230030 | 10 | 341 | 3.2 | 3.2 | 0.00 | 0.00 | 0.00 | 43 | 1014.4 |
| 20260503225527 | 10 | 2 | 1.6 | 3.2 | 0.00 | 0.00 | 0.00 | 43 | 1014.6 |
| 20260503225022 | 10 | 297 | 4.8 | 8.0 | 0.00 | 0.00 | 0.00 | 42 | 1014.3 |
| 20260503224520 | 10 | 326 | 8.0 | 9.7 | 0.00 | 0.00 | 0.00 | 42 | 1014.5 |
| 20260503224017 | 11 | 332 | 4.8 | 4.8 | 0.00 | 0.00 | 0.00 | 42 | 1014.4 |
| 20260503223515 | 10 | 335 | 4.8 | 4.8 | 0.00 | 0.00 | 0.00 | 43 | 1014.3 |
| 20260503223010 | 10 | 293 | 4.8 | 9.7 | 0.00 | 0.00 | 0.00 | 44 | 1014.2 |
| 20260503222509 | 10 | 321 | 3.2 | 3.2 | 0.00 | 0.00 | 0.00 | 43 | 1014.5 |
| 20260503222006 | 11 | 330 | 4.8 | 4.8 | 0.00 | 0.00 | 0.00 | 42 | 1014.4 |
| 20260503221504 | 11 | 254 | 3.2 | 3.2 | 0.00 | 0.00 | 0.00 | 42 | 1014.4 |
| 20260503221001 | 11 | 186 | 4.8 | 4.8 | 0.00 | 0.00 | 0.00 | 40 | 1014.5 |
| 20260503220457 | 12 | 5 | 3.2 | 4.8 | 0.00 | 0.00 | 0.00 | 40 | 1014.5 |
| 20260503215954 | 11 | 225 | 1.6 | 1.6 | 0.00 | 0.00 | 0.00 | 40 | 1014.6 |
| 20260503215451 | 10 | 41 | 1.6 | 3.2 | 0.00 | 0.00 | 0.00 | 42 | 1014.4 |
| 20260503214943 | 11 | 292 | 4.8 | 4.8 | 0.00 | 0.00 | 0.00 | 41 | 1014.6 |
| 20260503214441 | 11 | 321 | 6.4 | 11.3 | 0.00 | 0.00 | 0.00 | 40 | 1014.6 |
| 20260503213938 | 11 | 342 | 6.4 | 8.0 | 0.00 | 0.00 | 0.00 | 40 | 1014.5 |
| 20260503213437 | 11 | 309 | 8.0 | 9.7 | 0.00 | 0.00 | 0.00 | 40 | 1014.3 |
| 20260503212932 | 11 | 347 | 4.8 | 4.8 | 0.00 | 0.00 | 0.00 | 40 | 1014.3 |
| 20260503212430 | 11 | 302 | 6.4 | 8.0 | 0.00 | 0.00 | 0.00 | 41 | 1014.5 |
| 20260503211927 | 12 | 268 | 3.2 | 8.0 | 0.00 | 0.00 | 0.00 | 41 | 1014.2 |
| 20260503211424 | 11 | 172 | 1.6 | 3.2 | 0.00 | 0.00 | 0.00 | 41 | 1014.4 |
| 20260503210919 | 10 | 294 | 4.8 | 4.8 | 0.00 | 0.00 | 0.00 | 44 | 1014.5 |
| 20260503210416 | 11 | 331 | 3.2 | 4.8 | 0.00 | 0.00 | 0.00 | 42 | 1014.5 |
| 20260503205911 | 11 | 282 | 4.8 | 8.0 | 0.00 | 0.00 | 0.00 | 41 | 1014.6 |
| 20260503205409 | 11 | 318 | 6.4 | 8.0 | 0.00 | 0.00 | 0.00 | 40 | 1014.5 |
| 20260503204904 | 12 | 286 | 12.9 | 14.5 | 0.00 | 0.00 | 0.00 | 40 | 1014.5 |
| 20260503204402 | 10 | 326 | 4.8 | 8.0 | 0.00 | 0.00 | 0.00 | 43 | 1014.6 |
| 20260503203859 | 11 | 339 | 4.8 | 8.0 | 0.00 | 0.00 | 0.00 | 41 | 1014.6 |
| 20260503203356 | 12 | 31 | 3.2 | 4.8 | 0.00 | 0.00 | 0.00 | 39 | 1014.6 |
| 20260503202853 | 11 | 185 | 4.8 | 8.0 | 0.00 | 0.00 | 0.00 | 42 | 1014.6 |
| 20260503202351 | 11 | 245 | 1.6 | 1.6 | 0.00 | 0.00 | 0.00 | 42 | 1015.0 |
| 20260503201849 | 10 | 214 | 6.4 | 9.7 | 0.00 | 0.00 | 0.00 | 42 | 1015.1 |
| 20260503201346 | 10 | 73 | 3.2 | 4.8 | 0.00 | 0.00 | 0.00 | 43 | 1015.2 |
| 20260503200844 | 12 | 243 | 11.3 | 14.5 | 0.00 | 0.00 | 0.00 | 40 | 1015.2 |
| 20260503200339 | 10 | 289 | 1.6 | 3.2 | 0.00 | 0.00 | 0.00 | 44 | 1014.9 |
| 20260503195837 | 11 | 262 | 3.2 | 3.2 | 0.00 | 0.00 | 0.00 | 41 | 1015.0 |
| 20260503195333 | 12 | 239 | 9.7 | 11.3 | 0.00 | 0.00 | 0.00 | 40 | 1015.4 |
| 20260503194830 | 11 | 329 | 8.0 | 16.1 | 0.00 | 0.00 | 0.00 | 43 | 1015.2 |
| 20260503194326 | 11 | 327 | 3.2 | 3.2 | 0.00 | 0.00 | 0.00 | 42 | 1015.2 |
| 20260503193823 | 11 | 223 | 4.8 | 8.0 | 0.00 | 0.00 | 0.00 | 43 | 1015.4 |
| 20260503193319 | 11 | 303 | 4.8 | 4.8 | 0.00 | 0.00 | 0.00 | 39 | 1015.1 |
| 20260503192815 | 11 | 304 | 4.8 | 4.8 | 0.00 | 0.00 | 0.00 | 41 | 1015.5 |
| 20260503192310 | 12 | 10 | 6.4 | 9.7 | 0.00 | 0.00 | 0.00 | 40 | 1015.5 |
| 20260503191806 | 10 | 284 | 9.7 | 12.9 | 0.00 | 0.00 | 0.00 | 41 | 1015.5 |
| 20260503191304 | 11 | 289 | 4.8 | 4.8 | 0.00 | 0.00 | 0.00 | 42 | 1015.6 |
| 20260503190801 | 10 | 299 | 6.4 | 9.7 | 0.00 | 0.00 | 0.00 | 41 | 1016.0 |
| 20260503190258 | 10 | 289 | 4.8 | 8.0 | 0.00 | 0.00 | 0.00 | 40 | 1015.7 |
| 20260503185755 | 11 | 221 | 22.5 | 35.4 | 0.00 | 0.00 | 0.00 | 41 | 1015.5 |
| 20260503185250 | 11 | 337 | 6.4 | 9.7 | 0.00 | 0.00 | 0.00 | 41 | 1015.8 |
| 20260503184744 | 10 | 257 | 6.4 | 9.7 | 0.00 | 0.00 | 0.00 | 43 | 1016.0 |
| 20260503184241 | 10 | 255 | 6.4 | 8.0 | 0.00 | 0.00 | 0.00 | 44 | 1015.9 |
| 20260503183737 | 10 | 359 | 1.6 | 3.2 | 0.00 | 0.00 | 0.00 | 43 | 1015.9 |
| 20260503183235 | 10 | 355 | 4.8 | 8.0 | 0.00 | 0.00 | 0.00 | 43 | 1016.0 |
| 20260503182733 | 11 | 325 | 3.2 | 3.2 | 0.00 | 0.00 | 0.00 | 43 | 1016.0 |
| 20260503182231 | 10 | 352 | 4.8 | 8.0 | 0.00 | 0.00 | 0.00 | 41 | 1016.0 |
| 20260503181728 | 11 | 288 | 11.3 | 16.1 | 0.00 | 0.00 | 0.00 | 40 | 1015.9 |
| 20260503181225 | 10 | 284 | 6.4 | 8.0 | 0.00 | 0.00 | 0.00 | 42 | 1016.1 |
| 20260503180721 | 10 | 342 | 6.4 | 8.0 | 0.00 | 0.00 | 0.00 | 42 | 1016.1 |
| 20260503180219 | 11 | 23 | 1.6 | 1.6 | 0.00 | 0.00 | 0.00 | 44 | 1016.1 |
| 20260503175716 | 10 | 346 | 4.8 | 4.8 | 0.00 | 0.00 | 0.00 | 43 | 1016.2 |
| 20260503175214 | 10 | 266 | 3.2 | 4.8 | 0.00 | 0.00 | 0.00 | 45 | 1016.6 |
| 20260503174709 | 10 | 282 | 4.8 | 8.0 | 0.00 | 0.00 | 0.00 | 46 | 1016.2 |
| 20260503174207 | 10 | 334 | 4.8 | 8.0 | 0.00 | 0.00 | 0.00 | 42 | 1016.2 |
| 20260503173702 | 10 | 276 | 1.6 | 1.6 | 0.00 | 0.00 | 0.00 | 47 | 1016.4 |
| 20260503173159 | 10 | 228 | 6.4 | 8.0 | 0.00 | 0.00 | 0.00 | 45 | 1016.2 |
| 20260503172656 | 10 | 311 | 4.8 | 4.8 | 0.00 | 0.00 | 0.00 | 47 | 1016.4 |
| 20260503172153 | 9 | 309 | 6.4 | 9.7 | 0.00 | 0.00 | 0.00 | 47 | 1016.6 |
| 20260503171649 | 8 | 286 | 11.3 | 12.9 | 0.00 | 0.00 | 0.00 | 46 | 1016.5 |
| 20260503171147 | 9 | 1 | 8.0 | 9.7 | 0.00 | 0.00 | 0.00 | 45 | 1016.4 |
| 20260503170643 | 9 | 248 | 8.0 | 11.3 | 0.00 | 0.00 | 0.00 | 43 | 1016.5 |
| 20260503170140 | 9 | 289 | 11.3 | 14.5 | 0.00 | 0.00 | 0.00 | 44 | 1017.0 |
| 20260503150531 | 6 | 290 | 12.9 | 16.1 | 0.00 | 0.00 | 0.00 | 51 | 1017.1 |
| 20260503130921 | 3 | 322 | 4.8 | 4.8 | 0.00 | 0.00 | 0.00 | 71 | 1017.0 |
| 20260503130419 | 3 | 310 | 4.8 | 4.8 | 0.00 | 0.00 | 0.00 | 74 | 1016.8 |
| 20260503110817 | -1 | 359 | 0.0 | 0.0 | 0.00 | 0.00 | 0.00 | 99 | 1016.1 |
| 20260503110314 | -1 | 4 | 0.0 | 0.0 | 0.00 | 0.00 | 0.00 | 99 | 1015.9 |
| 20260503100240 | -1 | 333 | 0.0 | 0.0 | 0.00 | 0.00 | 0.00 | 99 | 1015.1 |
| 20260503090200 | 0 | 319 | 3.2 | 3.2 | 0.00 | 0.00 | 0.00 | 98 | 1015.0 |
| 20260503081630 | -1 | 327 | 0.0 | 1.6 | 0.00 | 0.00 | 0.00 | 97 | 1015.0 |
| 20260503081127 | -1 | 324 | 1.6 | 1.6 | 0.00 | 0.00 | 0.00 | 97 | 1014.9 |
| 20260503080623 | -1 | 335 | 3.2 | 3.2 | 0.00 | 0.00 | 0.00 | 97 | 1015.1 |
| 20260503080120 | -1 | 324 | 1.6 | 1.6 | 0.00 | 0.00 | 0.00 | 97 | 1015.0 |
| 20260503072557 | 0 | 321 | 1.6 | 1.6 | 0.00 | 0.00 | 0.00 | 95 | 1014.5 |
| 20260503072054 | 0 | 298 | 3.2 | 3.2 | 0.00 | 0.00 | 0.00 | 95 | 1014.4 |
| 20260503071551 | 0 | 323 | 3.2 | 3.2 | 0.00 | 0.00 | 0.00 | 95 | 1014.5 |
| 20260503071048 | 0 | 295 | 4.8 | 4.8 | 0.00 | 0.00 | 0.00 | 95 | 1014.4 |